Location: México DF
(19.4326°N, 99.1332°W)
Time: 02:07:27
(UTC+00:00)

ISS - Pass Details

Date: 10 May 2026
Orbit: 414 x 424 km, 51.6° (Epoch: 15 May)

Event Time Altitude Azimuth Distance (km) Brightness Sun altitude
Rises 01:44:09 0° 244° (WSW) 2,336 0.7 -10.0°
Reaches altitude 10° 01:46:34 10° 261° (W) 1,475 0.0 -10.5°
Maximum altitude 01:49:10 21° 313° (NW) 974 -0.9 -11.1°
Drops below altitude 10° 01:51:47 10° 5° (N) 1,476 -0.7 -11.7°
Sets 01:54:12 0° 22° (NNE) 2,339 0.1 -12.2°
